Time,TemperatureF,DewpointF,PressureIn,WindDirection,WindDirectionDegrees,WindSpeedMPH,WindSpeedGustMPH,Humidity,HourlyPrecipIn,Conditions,Clouds,dailyrainin,SoftwareType,DateUTC
2012-12-04 00:03:00,53.3,38.4,30.13,East,94,3.0,5.0,57,0.00,,,0.00,WUHU216DAVISVP2,2012-12-04 07:03:00,
2012-12-04 00:08:00,53.3,38.4,30.13,ESE,104,4.0,5.0,57,0.00,,,0.00,WUHU216DAVISVP2,2012-12-04 07:08:00,
2012-12-04 00:13:00,53.3,38.5,30.12,ESE,114,2.0,5.0,57,0.00,,,0.00,WUHU216DAVISVP2,2012-12-04 07:13:00,
2012-12-04 00:18:00,53.4,38.6,30.13,East,94,2.0,5.0,57,0.00,,,0.00,WUHU216DAVISVP2,2012-12-04 07:18:00,
2012-12-04 00:23:00,53.4,38.6,30.13,East,89,3.0,4.0,57,0.00,,,0.00,WUHU216DAVISVP2,2012-12-04 07:23:00,
2012-12-04 00:28:00,53.3,38.5,30.13,East,98,3.0,5.0,57,0.00,,,0.00,WUHU216DAVISVP2,2012-12-04 07:28:00,
2012-12-04 00:33:00,53.2,38.4,30.13,East,101,2.0,5.0,57,0.00,,,0.00,WUHU216DAVISVP2,2012-12-04 07:33:00,
2012-12-04 00:38:00,53.1,38.8,30.13,East,101,3.0,4.0,58,0.00,,,0.00,WUHU216DAVISVP2,2012-12-04 07:38:00,
2012-12-04 00:43:00,53.1,38.8,30.13,East,93,2.0,5.0,58,0.00,,,0.00,WUHU216DAVISVP2,2012-12-04 07:43:00,
2012-12-04 00:48:00,53.0,38.7,30.12,ESE,108,2.0,5.0,58,0.00,,,0.00,WUHU216DAVISVP2,2012-12-04 07:48:00,
2012-12-04 00:53:00,52.9,38.6,30.12,ESE,103,3.0,4.0,58,0.00,,,0.00,WUHU216DAVISVP2,2012-12-04 07:53:00,
2012-12-04 00:58:00,52.8,38.4,30.12,ESE,105,2.0,4.0,58,0.00,,,0.00,WUHU216DAVISVP2,2012-12-04 07:58:00,
2012-12-04 01:03:00,52.7,38.8,30.12,East,101,4.0,4.0,59,0.00,,,0.00,WUHU216DAVISVP2,2012-12-04 08:03:00,
2012-12-04 01:08:00,52.6,38.8,30.12,East,90,1.0,4.0,59,0.00,,,0.00,WUHU216DAVISVP2,2012-12-04 08:08:00,
2012-12-04 01:13:00,52.6,38.8,30.13,ESE,103,2.0,4.0,59,0.00,,,0.00,WUHU216DAVISVP2,2012-12-04 08:13:00,
2012-12-04 01:18:00,52.5,38.7,30.13,ESE,102,2.0,4.0,59,0.00,,,0.00,WUHU216DAVISVP2,2012-12-04 08:18:00,
2012-12-04 01:23:00,52.3,38.5,30.13,East,91,2.0,3.0,59,0.00,,,0.00,WUHU216DAVISVP2,2012-12-04 08:23:00,
2012-12-04 01:28:00,52.1,38.7,30.12,East,94,1.0,3.0,60,0.00,,,0.00,WUHU216DAVISVP2,2012-12-04 08:28:00,
2012-12-04 01:33:00,51.9,38.5,30.12,East,95,2.0,3.0,60,0.00,,,0.00,WUHU216DAVISVP2,2012-12-04 08:33:00,
2012-12-04 01:38:00,51.7,38.4,30.12,ESE,103,3.0,4.0,60,0.00,,,0.00,WUHU216DAVISVP2,2012-12-04 08:38:00,
2012-12-04 01:43:00,51.6,38.3,30.13,East,101,2.0,4.0,60,0.00,,,0.00,WUHU216DAVISVP2,2012-12-04 08:43:00,
2012-12-04 01:48:00,51.6,38.7,30.13,East,98,3.0,4.0,61,0.00,,,0.00,WUHU216DAVISVP2,2012-12-04 08:48:00,
2012-12-04 01:53:00,51.5,38.6,30.12,ESE,104,2.0,4.0,61,0.00,,,0.00,WUHU216DAVISVP2,2012-12-04 08:53:00,
2012-12-04 01:58:00,51.6,38.6,30.13,East,91,3.0,4.0,61,0.00,,,0.00,WUHU216DAVISVP2,2012-12-04 08:58:00,
2012-12-04 02:03:00,51.7,38.7,30.13,ESE,103,2.0,4.0,61,0.00,,,0.00,WUHU216DAVISVP2,2012-12-04 09:03:00,
2012-12-04 02:08:00,51.6,38.7,30.13,East,94,2.0,4.0,61,0.00,,,0.00,WUHU216DAVISVP2,2012-12-04 09:08:00,
2012-12-04 02:13:00,51.4,38.5,30.13,ESE,104,2.0,4.0,61,0.00,,,0.00,WUHU216DAVISVP2,2012-12-04 09:13:00,
2012-12-04 02:18:00,51.3,38.4,30.13,ESE,105,1.0,3.0,61,0.00,,,0.00,WUHU216DAVISVP2,2012-12-04 09:18:00,
2012-12-04 02:24:00,51.1,38.6,30.13,ESE,108,1.0,3.0,62,0.00,,,0.00,WUHU216DAVISVP2,2012-12-04 09:24:00,
2012-12-04 02:29:00,51.0,38.5,30.13,ESE,119,1.0,2.0,62,0.00,,,0.00,WUHU216DAVISVP2,2012-12-04 09:29:00,
2012-12-04 02:34:00,50.9,38.4,30.13,ESE,104,1.0,3.0,62,0.00,,,0.00,WUHU216DAVISVP2,2012-12-04 09:34:00,
2012-12-04 02:39:00,50.8,38.4,30.13,ESE,106,1.0,3.0,62,0.00,,,0.00,WUHU216DAVISVP2,2012-12-04 09:39:00,
2012-12-04 02:44:00,50.7,38.7,30.13,ESE,111,1.0,3.0,63,0.00,,,0.00,WUHU216DAVISVP2,2012-12-04 09:44:00,
2012-12-04 02:49:00,50.6,38.6,30.14,ESE,105,1.0,2.0,63,0.00,,,0.00,WUHU216DAVISVP2,2012-12-04 09:49:00,
2012-12-04 02:54:00,50.6,38.6,30.13,ESE,109,1.0,2.0,63,0.00,,,0.00,WUHU216DAVISVP2,2012-12-04 09:54:00,
2012-12-04 02:59:00,50.4,38.4,30.14,ESE,104,1.0,2.0,63,0.00,,,0.00,WUHU216DAVISVP2,2012-12-04 09:59:00,
2012-12-04 03:04:00,50.4,38.3,30.13,ESE,112,0.0,2.0,63,0.00,,,0.00,WUHU216DAVISVP2,2012-12-04 10:04:00,
2012-12-04 03:09:00,50.4,38.3,30.14,ESE,117,1.0,2.0,63,0.00,,,0.00,WUHU216DAVISVP2,2012-12-04 10:09:00,
2012-12-04 03:14:00,50.4,38.4,30.14,SSW,197,0.0,2.0,63,0.00,,,0.00,WUHU216DAVISVP2,2012-12-04 10:14:00,
2012-12-04 03:19:00,50.2,38.6,30.14,SSW,198,0.0,2.0,64,0.00,,,0.00,WUHU216DAVISVP2,2012-12-04 10:19:00,
2012-12-04 03:24:00,49.7,38.1,30.14,SSW,197,0.0,2.0,64,0.00,,,0.00,WUHU216DAVISVP2,2012-12-04 10:24:00,
2012-12-04 03:28:00,49.4,38.2,30.14,SSW,197,0.0,2.0,65,0.00,,,0.00,WUHU216DAVISVP2,2012-12-04 10:28:00,
2012-12-04 03:34:00,49.1,37.9,30.14,SSW,197,0.0,1.0,65,0.00,,,0.00,WUHU216DAVISVP2,2012-12-04 10:34:00,
2012-12-04 03:39:00,48.7,37.6,30.14,SSW,197,0.0,1.0,65,0.00,,,0.00,WUHU216DAVISVP2,2012-12-04 10:39:00,
2012-12-04 03:44:00,48.3,37.6,30.14,SSW,197,0.0,1.0,66,0.00,,,0.00,WUHU216DAVISVP2,2012-12-04 10:44:00,
2012-12-04 03:49:00,48.0,37.7,30.14,SSW,197,0.0,1.0,67,0.00,,,0.00,WUHU216DAVISVP2,2012-12-04 10:49:00,
2012-12-04 03:54:00,47.8,37.1,30.14,SSW,198,0.0,1.0,66,0.00,,,0.00,WUHU216DAVISVP2,2012-12-04 10:54:00,
2012-12-04 03:59:00,47.5,37.6,30.14,South,169,0.0,1.0,68,0.00,,,0.00,WUHU216DAVISVP2,2012-12-04 10:59:00,
2012-12-04 04:05:00,47.5,37.5,30.14,SE,145,0.0,1.0,68,0.00,,,0.00,WUHU216DAVISVP2,2012-12-04 11:05:00,
2012-12-04 04:11:00,47.1,37.4,30.14,ESE,105,1.0,1.0,69,0.00,,,0.00,WUHU216DAVISVP2,2012-12-04 11:11:00,
2012-12-04 04:17:00,47.1,37.5,30.15,ESE,108,1.0,1.0,69,0.00,,,0.00,WUHU216DAVISVP2,2012-12-04 11:17:00,
2012-12-04 04:22:00,46.9,37.4,30.15,SE,128,0.0,1.0,69,0.00,,,0.00,WUHU216DAVISVP2,2012-12-04 11:22:00,
2012-12-04 04:29:00,46.8,37.6,30.15,SSE,151,1.0,3.0,70,0.00,,,0.00,WUHU216DAVISVP2,2012-12-04 11:29:00,
2012-12-04 04:34:00,46.8,37.3,30.15,SSE,160,2.0,4.0,69,0.00,,,0.00,WUHU216DAVISVP2,2012-12-04 11:34:00,
2012-12-04 04:39:00,46.8,37.3,30.16,SSE,149,2.0,4.0,69,0.00,,,0.00,WUHU216DAVISVP2,2012-12-04 11:39:00,
2012-12-04 04:44:00,46.8,37.3,30.16,SE,139,1.0,4.0,69,0.00,,,0.00,WUHU216DAVISVP2,2012-12-04 11:44:00,
2012-12-04 04:49:00,46.9,37.0,30.16,ESE,121,1.0,4.0,68,0.00,,,0.00,WUHU216DAVISVP2,2012-12-04 11:49:00,
2012-12-04 04:54:00,47.1,37.2,30.16,ESE,122,2.0,4.0,68,0.00,,,0.00,WUHU216DAVISVP2,2012-12-04 11:54:00,
2012-12-04 04:59:00,47.3,37.0,30.15,East,101,3.0,4.0,67,0.00,,,0.00,WUHU216DAVISVP2,2012-12-04 11:59:00,
2012-12-04 05:04:00,47.6,37.7,30.15,ESE,123,4.0,5.0,68,0.00,,,0.00,WUHU216DAVISVP2,2012-12-04 12:04:00,
2012-12-04 05:09:00,48.0,37.7,30.15,ESE,116,1.0,6.0,67,0.00,,,0.00,WUHU216DAVISVP2,2012-12-04 12:09:00,
2012-12-04 05:14:00,48.3,38.0,30.16,ESE,117,1.0,6.0,67,0.00,,,0.00,WUHU216DAVISVP2,2012-12-04 12:14:00,
2012-12-04 05:19:00,48.3,38.0,30.16,ESE,103,2.0,6.0,67,0.00,,,0.00,WUHU216DAVISVP2,2012-12-04 12:19:00,
2012-12-04 05:24:00,48.2,37.9,30.16,ESE,103,3.0,6.0,67,0.00,,,0.00,WUHU216DAVISVP2,2012-12-04 12:24:00,
2012-12-04 05:29:00,48.1,37.8,30.17,East,97,3.0,4.0,67,0.00,,,0.00,WUHU216DAVISVP2,2012-12-04 12:29:00,
2012-12-04 05:34:00,48.1,37.8,30.17,East,84,0.0,4.0,67,0.00,,,0.00,WUHU216DAVISVP2,2012-12-04 12:34:00,
2012-12-04 05:39:00,48.0,38.0,30.17,East,98,4.0,5.0,68,0.00,,,0.00,WUHU216DAVISVP2,2012-12-04 12:39:00,
2012-12-04 05:44:00,47.9,37.9,30.17,ESE,114,2.0,5.0,68,0.00,,,0.00,WUHU216DAVISVP2,2012-12-04 12:44:00,
2012-12-04 05:49:00,48.0,38.0,30.17,ESE,113,1.0,5.0,68,0.00,,,0.00,WUHU216DAVISVP2,2012-12-04 12:49:00,
2012-12-04 05:54:00,48.2,38.2,30.17,ESE,116,1.0,5.0,68,0.00,,,0.00,WUHU216DAVISVP2,2012-12-04 12:54:00,
2012-12-04 05:59:00,48.3,38.3,30.18,East,87,2.0,4.0,68,0.00,,,0.00,WUHU216DAVISVP2,2012-12-04 12:59:00,
2012-12-04 06:04:00,48.0,37.7,30.17,East,94,5.0,6.0,67,0.00,,,0.00,WUHU216DAVISVP2,2012-12-04 13:04:00,
2012-12-04 06:09:00,47.8,37.7,30.17,ESE,111,4.0,6.0,68,0.00,,,0.00,WUHU216DAVISVP2,2012-12-04 13:09:00,
2012-12-04 06:14:00,47.9,37.8,30.17,East,100,3.0,6.0,68,0.00,,,0.00,WUHU216DAVISVP2,2012-12-04 13:14:00,
2012-12-04 06:19:00,48.2,38.1,30.17,ESE,112,1.0,5.0,68,0.00,,,0.00,WUHU216DAVISVP2,2012-12-04 13:19:00,
2012-12-04 06:24:00,48.5,38.0,30.18,ESE,114,2.0,5.0,67,0.00,,,0.00,WUHU216DAVISVP2,2012-12-04 13:24:00,
2012-12-04 06:29:00,48.5,38.0,30.18,ESE,117,2.0,4.0,67,0.00,,,0.00,WUHU216DAVISVP2,2012-12-04 13:29:00,
2012-12-04 06:34:00,48.6,38.5,30.18,East,101,2.0,4.0,68,0.00,,,0.00,WUHU216DAVISVP2,2012-12-04 13:34:00,
2012-12-04 06:39:00,48.8,38.3,30.18,ESE,108,1.0,4.0,67,0.00,,,0.00,WUHU216DAVISVP2,2012-12-04 13:39:00,
2012-12-04 06:44:00,48.9,38.5,30.19,East,99,2.0,3.0,67,0.00,,,0.00,WUHU216DAVISVP2,2012-12-04 13:44:00,
2012-12-04 06:49:00,48.7,38.3,30.19,ESE,106,2.0,4.0,67,0.00,,,0.00,WUHU216DAVISVP2,2012-12-04 13:49:00,
2012-12-04 06:54:00,48.8,38.4,30.19,East,96,1.0,4.0,67,0.00,,,0.00,WUHU216DAVISVP2,2012-12-04 13:54:00,
2012-12-04 06:59:00,48.9,38.5,30.19,ESE,108,0.0,4.0,67,0.00,,,0.00,WUHU216DAVISVP2,2012-12-04 13:59:00,
2012-12-04 07:04:00,48.7,38.3,30.20,ESE,113,1.0,4.0,67,0.00,,,0.00,WUHU216DAVISVP2,2012-12-04 14:04:00,
2012-12-04 07:09:00,48.7,38.3,30.20,ESE,115,1.0,3.0,67,0.00,,,0.00,WUHU216DAVISVP2,2012-12-04 14:09:00,
2012-12-04 07:14:00,48.8,38.4,30.20,ESE,104,1.0,3.0,67,0.00,,,0.00,WUHU216DAVISVP2,2012-12-04 14:14:00,
2012-12-04 07:19:00,48.9,38.5,30.20,East,93,4.0,4.0,67,0.00,,,0.00,WUHU216DAVISVP2,2012-12-04 14:19:00,
2012-12-04 07:24:00,48.9,38.9,30.20,ESE,108,2.0,4.0,68,0.00,,,0.00,WUHU216DAVISVP2,2012-12-04 14:24:00,
2012-12-04 07:29:00,49.4,39.0,30.20,ESE,103,0.0,4.0,67,0.00,,,0.00,WUHU216DAVISVP2,2012-12-04 14:29:00,
2012-12-04 07:34:00,49.7,38.9,30.21,ESE,113,0.0,3.0,66,0.00,,,0.00,WUHU216DAVISVP2,2012-12-04 14:34:00,
2012-12-04 07:39:00,50.1,39.3,30.21,ESE,106,0.0,3.0,66,0.00,,,0.00,WUHU216DAVISVP2,2012-12-04 14:39:00,
2012-12-04 07:44:00,50.6,39.4,30.21,East,80,0.0,2.0,65,0.00,,,0.00,WUHU216DAVISVP2,2012-12-04 14:44:00,
2012-12-04 07:49:00,51.2,39.6,30.21,East,88,0.0,2.0,64,0.00,,,0.00,WUHU216DAVISVP2,2012-12-04 14:49:00,
2012-12-04 07:54:00,51.8,39.7,30.21,East,98,1.0,2.0,63,0.00,,,0.00,WUHU216DAVISVP2,2012-12-04 14:54:00,
2012-12-04 07:59:00,52.5,40.0,30.21,East,93,3.0,4.0,62,0.00,,,0.00,WUHU216DAVISVP2,2012-12-04 14:59:00,
2012-12-04 08:04:00,53.1,40.1,30.22,East,90,1.0,4.0,61,0.00,,,0.00,WUHU216DAVISVP2,2012-12-04 15:04:00,
2012-12-04 08:09:00,53.7,40.2,30.22,ENE,73,3.0,4.0,60,0.00,,,0.00,WUHU216DAVISVP2,2012-12-04 15:09:00,
2012-12-04 08:14:00,54.2,40.3,30.22,East,101,2.0,4.0,59,0.00,,,0.00,WUHU216DAVISVP2,2012-12-04 15:14:00,
2012-12-04 08:19:00,54.7,40.7,30.21,East,83,1.0,4.0,59,0.00,,,0.00,WUHU216DAVISVP2,2012-12-04 15:19:00,
2012-12-04 08:26:00,55.3,40.9,30.21,East,91,0.0,4.0,58,0.00,,,0.00,WUHU216DAVISVP2,2012-12-04 15:26:00,
2012-12-04 08:31:00,56.0,41.1,30.21,East,90,1.0,3.0,57,0.00,,,0.00,WUHU216DAVISVP2,2012-12-04 15:31:00,
2012-12-04 08:36:00,56.7,41.3,30.21,ESE,103,0.0,3.0,56,0.00,,,0.00,WUHU216DAVISVP2,2012-12-04 15:36:00,
2012-12-04 08:41:00,57.4,41.4,30.21,ESE,103,0.0,2.0,55,0.00,,,0.00,WUHU216DAVISVP2,2012-12-04 15:41:00,
2012-12-04 08:47:00,58.2,41.7,30.21,ESE,109,2.0,5.0,54,0.00,,,0.00,WUHU216DAVISVP2,2012-12-04 15:47:00,
2012-12-04 08:52:00,58.9,41.8,30.21,ENE,70,1.0,5.0,53,0.00,,,0.00,WUHU216DAVISVP2,2012-12-04 15:52:00,
2012-12-04 08:57:00,59.1,41.5,30.21,NE,50,1.0,4.0,52,0.00,,,0.00,WUHU216DAVISVP2,2012-12-04 15:57:00,
2012-12-04 09:02:00,59.2,41.6,30.22,NE,50,0.0,4.0,52,0.00,,,0.00,WUHU216DAVISVP2,2012-12-04 16:02:00,
2012-12-04 09:07:00,59.5,41.9,30.22,NE,47,0.0,4.0,52,0.00,,,0.00,WUHU216DAVISVP2,2012-12-04 16:07:00,
2012-12-04 09:12:00,59.8,41.7,30.22,NE,47,0.0,1.0,51,0.00,,,0.00,WUHU216DAVISVP2,2012-12-04 16:12:00,
2012-12-04 09:17:00,60.4,41.7,30.22,NE,47,0.0,1.0,50,0.00,,,0.00,WUHU216DAVISVP2,2012-12-04 16:17:00,
2012-12-04 09:23:00,60.9,41.6,30.22,WSW,252,1.0,1.0,49,0.00,,,0.00,WUHU216DAVISVP2,2012-12-04 16:23:00,
2012-12-04 09:28:00,61.1,41.8,30.22,West,273,0.0,1.0,49,0.00,,,0.00,WUHU216DAVISVP2,2012-12-04 16:28:00,
2012-12-04 09:33:00,61.4,42.1,30.22,West,271,0.0,1.0,49,0.00,,,0.00,WUHU216DAVISVP2,2012-12-04 16:33:00,
2012-12-04 09:38:00,62.0,42.1,30.22,West,270,1.0,1.0,48,0.00,,,0.00,WUHU216DAVISVP2,2012-12-04 16:38:00,
2012-12-04 09:43:00,62.8,41.7,30.22,SE,130,2.0,4.0,46,0.00,,,0.00,WUHU216DAVISVP2,2012-12-04 16:43:00,
2012-12-04 09:48:00,64.2,41.1,30.22,East,96,1.0,5.0,43,0.00,,,0.00,WUHU216DAVISVP2,2012-12-04 16:48:00,
2012-12-04 09:53:00,64.9,41.1,30.22,East,93,1.0,5.0,42,0.00,,,0.00,WUHU216DAVISVP2,2012-12-04 16:53:00,
2012-12-04 09:58:00,65.4,41.7,30.22,NE,44,1.0,6.0,42,0.00,,,0.00,WUHU216DAVISVP2,2012-12-04 16:58:00,
2012-12-04 10:03:00,66.2,41.2,30.22,NE,43,2.0,6.0,40,0.00,,,0.00,WUHU216DAVISVP2,2012-12-04 17:03:00,
2012-12-04 10:08:00,66.4,41.2,30.22,North,356,3.0,6.0,40,0.00,,,0.00,WUHU216DAVISVP2,2012-12-04 17:08:00,
2012-12-04 10:13:00,66.9,41.0,30.22,North,358,2.0,6.0,39,0.00,,,0.00,WUHU216DAVISVP2,2012-12-04 17:13:00,
2012-12-04 10:18:00,67.2,40.6,30.22,NE,56,2.0,6.0,38,0.00,,,0.00,WUHU216DAVISVP2,2012-12-04 17:18:00,
2012-12-04 10:23:00,67.5,40.8,30.22,NNW,345,3.0,7.0,38,0.00,,,0.00,WUHU216DAVISVP2,2012-12-04 17:23:00,
2012-12-04 10:28:00,67.9,41.2,30.22,NNE,32,4.0,9.0,38,0.00,,,0.00,WUHU216DAVISVP2,2012-12-04 17:28:00,
2012-12-04 10:34:00,68.0,40.6,30.22,NNE,33,4.0,10.0,37,0.00,,,0.00,WUHU216DAVISVP2,2012-12-04 17:34:00,
2012-12-04 10:39:00,68.0,40.7,30.21,NNE,26,3.0,10.0,37,0.00,,,0.00,WUHU216DAVISVP2,2012-12-04 17:39:00,
2012-12-04 10:44:00,68.6,40.6,30.21,ENE,65,4.0,11.0,36,0.00,,,0.00,WUHU216DAVISVP2,2012-12-04 17:44:00,
2012-12-04 10:49:00,68.9,40.7,30.20,ENE,59,7.0,11.0,36,0.00,,,0.00,WUHU216DAVISVP2,2012-12-04 17:49:00,
2012-12-04 10:54:00,69.3,41.0,30.20,NNE,26,3.0,11.0,36,0.00,,,0.00,WUHU216DAVISVP2,2012-12-04 17:54:00,
2012-12-04 10:59:00,69.9,40.8,30.20,ENE,69,8.0,12.0,35,0.00,,,0.00,WUHU216DAVISVP2,2012-12-04 17:59:00,
2012-12-04 11:03:00,70.3,40.4,30.20,NE,56,9.0,14.0,34,0.00,,,0.00,WUHU216DAVISVP2,2012-12-04 18:03:00,
2012-12-04 11:08:00,70.3,40.4,30.19,NE,38,5.0,14.0,34,0.00,,,0.00,WUHU216DAVISVP2,2012-12-04 18:08:00,
2012-12-04 11:13:00,70.6,40.7,30.19,ENE,58,11.0,14.0,34,0.00,,,0.00,WUHU216DAVISVP2,2012-12-04 18:13:00,
2012-12-04 11:18:00,71.0,40.4,30.19,NE,48,4.0,13.0,33,0.00,,,0.00,WUHU216DAVISVP2,2012-12-04 18:18:00,
2012-12-04 11:23:00,71.0,40.3,30.18,NNE,22,6.0,13.0,33,0.00,,,0.00,WUHU216DAVISVP2,2012-12-04 18:23:00,
2012-12-04 11:29:00,71.4,40.0,30.18,NE,34,9.0,13.0,32,0.00,,,0.00,WUHU216DAVISVP2,2012-12-04 18:29:00,
2012-12-04 11:34:00,71.5,40.1,30.18,NNE,32,12.0,13.0,32,0.00,,,0.00,WUHU216DAVISVP2,2012-12-04 18:34:00,
2012-12-04 11:39:00,71.8,40.3,30.17,ENE,77,9.0,13.0,32,0.00,,,0.00,WUHU216DAVISVP2,2012-12-04 18:39:00,
2012-12-04 11:44:00,72.3,39.8,30.17,NNE,26,8.0,15.0,31,0.00,,,0.00,WUHU216DAVISVP2,2012-12-04 18:44:00,
2012-12-04 11:49:00,72.6,40.0,30.17,NNE,14,6.0,15.0,31,0.00,,,0.00,WUHU216DAVISVP2,2012-12-04 18:49:00,
2012-12-04 11:54:00,72.9,39.5,30.17,NE,41,7.0,13.0,30,0.00,,,0.00,WUHU216DAVISVP2,2012-12-04 18:54:00,
2012-12-04 11:59:00,72.8,39.4,30.17,NE,36,5.0,14.0,30,0.00,,,0.00,WUHU216DAVISVP2,2012-12-04 18:59:00,
2012-12-04 12:04:00,72.9,39.5,30.16,North,9,4.0,14.0,30,0.00,,,0.00,WUHU216DAVISVP2,2012-12-04 19:04:00,
2012-12-04 12:10:00,73.6,40.1,30.15,ENE,57,8.0,14.0,30,0.00,,,0.00,WUHU216DAVISVP2,2012-12-04 19:10:00,
2012-12-04 12:15:00,73.3,39.8,30.15,ENE,59,4.0,13.0,30,0.00,,,0.00,WUHU216DAVISVP2,2012-12-04 19:15:00,
2012-12-04 12:20:00,73.8,39.4,30.15,NE,43,4.0,16.0,29,0.00,,,0.00,WUHU216DAVISVP2,2012-12-04 19:20:00,
2012-12-04 12:25:00,73.7,39.3,30.14,NNE,19,5.0,16.0,29,0.00,,,0.00,WUHU216DAVISVP2,2012-12-04 19:25:00,
2012-12-04 12:30:00,74.0,39.6,30.14,NE,41,4.0,15.0,29,0.00,,,0.00,WUHU216DAVISVP2,2012-12-04 19:30:00,
2012-12-04 12:35:00,74.4,39.2,30.14,NNE,29,2.0,15.0,28,0.00,,,0.00,WUHU216DAVISVP2,2012-12-04 19:35:00,
2012-12-04 12:40:00,74.8,39.5,30.14,NNE,26,5.0,13.0,28,0.00,,,0.00,WUHU216DAVISVP2,2012-12-04 19:40:00,
2012-12-04 12:45:00,75.1,39.6,30.14,East,94,5.0,14.0,28,0.00,,,0.00,WUHU216DAVISVP2,2012-12-04 19:45:00,
2012-12-04 12:50:00,75.7,39.2,30.14,ENE,70,5.0,14.0,27,0.00,,,0.00,WUHU216DAVISVP2,2012-12-04 19:50:00,
2012-12-04 12:55:00,75.8,39.3,30.14,NNE,26,7.0,13.0,27,0.00,,,0.00,WUHU216DAVISVP2,2012-12-04 19:55:00,
2012-12-04 13:00:00,75.7,39.2,30.13,NNE,27,5.0,13.0,27,0.00,,,0.00,WUHU216DAVISVP2,2012-12-04 20:00:00,
2012-12-04 13:05:00,76.1,38.6,30.13,NE,46,4.0,13.0,26,0.00,,,0.00,WUHU216DAVISVP2,2012-12-04 20:05:00,
2012-12-04 13:10:00,76.2,38.7,30.13,North,11,7.0,12.0,26,0.00,,,0.00,WUHU216DAVISVP2,2012-12-04 20:10:00,
2012-12-04 13:15:00,76.6,39.1,30.12,NE,49,6.0,12.0,26,0.00,,,0.00,WUHU216DAVISVP2,2012-12-04 20:15:00,
2012-12-04 13:20:00,76.6,39.1,30.12,NE,47,4.0,12.0,26,0.00,,,0.00,WUHU216DAVISVP2,2012-12-04 20:20:00,
2012-12-04 13:25:00,76.6,38.0,30.12,East,91,7.0,11.0,25,0.00,,,0.00,WUHU216DAVISVP2,2012-12-04 20:25:00,
2012-12-04 13:30:00,76.8,38.2,30.11,NNE,19,6.0,11.0,25,0.00,,,0.00,WUHU216DAVISVP2,2012-12-04 20:30:00,
2012-12-04 13:35:00,77.0,38.4,30.11,East,93,2.0,10.0,25,0.00,,,0.00,WUHU216DAVISVP2,2012-12-04 20:35:00,
2012-12-04 13:40:00,77.1,38.5,30.11,East,90,4.0,10.0,25,0.00,,,0.00,WUHU216DAVISVP2,2012-12-04 20:40:00,
2012-12-04 13:45:00,77.1,38.5,30.10,North,352,5.0,10.0,25,0.00,,,0.00,WUHU216DAVISVP2,2012-12-04 20:45:00,
2012-12-04 13:50:00,77.2,38.5,30.10,ENE,72,7.0,10.0,25,0.00,,,0.00,WUHU216DAVISVP2,2012-12-04 20:50:00,
2012-12-04 13:55:00,77.4,38.7,30.10,NE,46,6.0,10.0,25,0.00,,,0.00,WUHU216DAVISVP2,2012-12-04 20:55:00,
2012-12-04 14:00:00,77.6,38.9,30.10,NE,40,6.0,12.0,25,0.00,,,0.00,WUHU216DAVISVP2,2012-12-04 21:00:00,
2012-12-04 14:05:00,77.5,38.9,30.09,NE,50,3.0,12.0,25,0.00,,,0.00,WUHU216DAVISVP2,2012-12-04 21:05:00,
2012-12-04 14:10:00,77.7,37.9,30.09,NE,48,5.0,12.0,24,0.00,,,0.00,WUHU216DAVISVP2,2012-12-04 21:10:00,
2012-12-04 14:15:00,78.1,38.3,30.09,East,93,5.0,11.0,24,0.00,,,0.00,WUHU216DAVISVP2,2012-12-04 21:15:00,
2012-12-04 14:20:00,78.5,38.6,30.09,NNW,346,6.0,10.0,24,0.00,,,0.00,WUHU216DAVISVP2,2012-12-04 21:20:00,
2012-12-04 14:25:00,78.8,37.8,30.09,ENE,72,7.0,10.0,23,0.00,,,0.00,WUHU216DAVISVP2,2012-12-04 21:25:00,
2012-12-04 14:30:00,78.6,38.8,30.09,ENE,75,1.0,10.0,24,0.00,,,0.00,WUHU216DAVISVP2,2012-12-04 21:30:00,
2012-12-04 14:35:00,78.5,38.7,30.09,East,89,0.0,9.0,24,0.00,,,0.00,WUHU216DAVISVP2,2012-12-04 21:35:00,
2012-12-04 14:40:00,78.6,37.6,30.09,NNE,19,4.0,9.0,23,0.00,,,0.00,WUHU216DAVISVP2,2012-12-04 21:40:00,
2012-12-04 14:45:00,78.6,37.6,30.09,NNE,13,5.0,8.0,23,0.00,,,0.00,WUHU216DAVISVP2,2012-12-04 21:45:00,
2012-12-04 14:50:00,78.7,37.7,30.08,NNE,13,6.0,8.0,23,0.00,,,0.00,WUHU216DAVISVP2,2012-12-04 21:50:00,
2012-12-04 14:55:00,78.6,37.6,30.08,North,356,3.0,9.0,23,0.00,,,0.00,WUHU216DAVISVP2,2012-12-04 21:55:00,
2012-12-04 15:00:00,78.7,37.7,30.08,North,350,4.0,9.0,23,0.00,,,0.00,WUHU216DAVISVP2,2012-12-04 22:00:00,
2012-12-04 15:05:00,79.0,38.0,30.08,NNE,16,4.0,8.0,23,0.00,,,0.00,WUHU216DAVISVP2,2012-12-04 22:05:00,
2012-12-04 15:10:00,79.0,38.0,30.08,NE,37,4.0,10.0,23,0.00,,,0.00,WUHU216DAVISVP2,2012-12-04 22:10:00,
2012-12-04 15:15:00,79.4,37.2,30.08,East,89,2.0,10.0,22,0.00,,,0.00,WUHU216DAVISVP2,2012-12-04 22:15:00,
2012-12-04 15:20:00,79.4,38.3,30.08,NE,46,3.0,9.0,23,0.00,,,0.00,WUHU216DAVISVP2,2012-12-04 22:20:00,
2012-12-04 15:25:00,79.2,39.3,30.08,East,100,3.0,9.0,24,0.00,,,0.00,WUHU216DAVISVP2,2012-12-04 22:25:00,
2012-12-04 15:30:00,79.1,36.9,30.08,NNE,12,2.0,8.0,22,0.00,,,0.00,WUHU216DAVISVP2,2012-12-04 22:30:00,
2012-12-04 15:35:00,78.9,39.0,30.08,South,173,2.0,8.0,24,0.00,,,0.00,WUHU216DAVISVP2,2012-12-04 22:35:00,
2012-12-04 15:40:00,78.5,38.6,30.08,West,259,3.0,7.0,24,0.00,,,0.00,WUHU216DAVISVP2,2012-12-04 22:40:00,
2012-12-04 15:45:00,78.8,37.8,30.08,WNW,295,4.0,10.0,23,0.00,,,0.00,WUHU216DAVISVP2,2012-12-04 22:45:00,
2012-12-04 15:50:00,78.2,40.5,30.08,WNW,298,9.0,11.0,26,0.00,,,0.00,WUHU216DAVISVP2,2012-12-04 22:50:00,
2012-12-04 15:55:00,76.7,41.0,30.08,NW,306,6.0,14.0,28,0.00,,,0.00,WUHU216DAVISVP2,2012-12-04 22:55:00,
2012-12-04 16:00:00,76.0,40.4,30.09,WNW,302,3.0,14.0,28,0.00,,,0.00,WUHU216DAVISVP2,2012-12-04 23:00:00,
2012-12-04 16:05:00,75.9,40.3,30.09,WNW,298,7.0,14.0,28,0.00,,,0.00,WUHU216DAVISVP2,2012-12-04 23:05:00,
2012-12-04 16:10:00,75.4,39.9,30.09,WNW,284,7.0,14.0,28,0.00,,,0.00,WUHU216DAVISVP2,2012-12-04 23:10:00,
2012-12-04 16:15:00,75.2,40.6,30.09,WNW,298,4.0,12.0,29,0.00,,,0.00,WUHU216DAVISVP2,2012-12-04 23:15:00,
2012-12-04 16:20:00,74.5,40.9,30.09,WNW,297,9.0,10.0,30,0.00,,,0.00,WUHU216DAVISVP2,2012-12-04 23:20:00,
2012-12-04 16:25:00,74.0,40.4,30.09,WNW,302,4.0,10.0,30,0.00,,,0.00,WUHU216DAVISVP2,2012-12-04 23:25:00,
2012-12-04 16:30:00,73.7,40.2,30.09,WNW,285,8.0,10.0,30,0.00,,,0.00,WUHU216DAVISVP2,2012-12-04 23:30:00,
2012-12-04 16:35:00,73.5,40.0,30.09,NW,314,6.0,11.0,30,0.00,,,0.00,WUHU216DAVISVP2,2012-12-04 23:35:00,
2012-12-04 16:40:00,73.1,40.7,30.09,NW,304,6.0,11.0,31,0.00,,,0.00,WUHU216DAVISVP2,2012-12-04 23:40:00,
2012-12-04 16:45:00,72.9,40.5,30.10,WNW,295,4.0,11.0,31,0.00,,,0.00,WUHU216DAVISVP2,2012-12-04 23:45:00,
2012-12-04 16:50:00,72.6,40.2,30.10,West,279,6.0,11.0,31,0.00,,,0.00,WUHU216DAVISVP2,2012-12-04 23:50:00,
2012-12-04 16:55:00,72.1,40.4,30.10,NW,307,4.0,11.0,32,0.00,,,0.00,WUHU216DAVISVP2,2012-12-04 23:55:00,
2012-12-04 17:00:00,71.8,40.2,30.10,NW,316,4.0,11.0,32,0.00,,,0.00,WUHU216DAVISVP2,2012-12-05 00:00:00,
2012-12-04 17:05:00,71.4,39.8,30.09,NW,307,5.0,11.0,32,0.00,,,0.00,WUHU216DAVISVP2,2012-12-05 00:05:00,
2012-12-04 17:10:00,71.1,39.6,30.10,WNW,283,1.0,8.0,32,0.00,,,0.00,WUHU216DAVISVP2,2012-12-05 00:10:00,
2012-12-04 17:15:00,70.7,39.2,30.10,NW,308,3.0,7.0,32,0.00,,,0.00,WUHU216DAVISVP2,2012-12-05 00:15:00,
2012-12-04 17:20:00,70.2,39.6,30.10,WNW,300,1.0,6.0,33,0.00,,,0.00,WUHU216DAVISVP2,2012-12-05 00:20:00,
2012-12-04 17:25:00,69.7,39.1,30.10,NW,307,0.0,6.0,33,0.00,,,0.00,WUHU216DAVISVP2,2012-12-05 00:25:00,
2012-12-04 17:30:00,69.1,38.6,30.10,NW,307,0.0,4.0,33,0.00,,,0.00,WUHU216DAVISVP2,2012-12-05 00:30:00,
2012-12-04 17:35:00,68.5,38.8,30.10,NW,307,0.0,4.0,34,0.00,,,0.00,WUHU216DAVISVP2,2012-12-05 00:35:00,
2012-12-04 17:40:00,68.0,39.1,30.10,NW,307,0.0,2.0,35,0.00,,,0.00,WUHU216DAVISVP2,2012-12-05 00:40:00,
2012-12-04 17:45:00,67.7,38.9,30.10,NW,307,0.0,1.0,35,0.00,,,0.00,WUHU216DAVISVP2,2012-12-05 00:45:00,
2012-12-04 17:51:00,67.3,38.5,30.10,WNW,302,0.0,1.0,35,0.00,,,0.00,WUHU216DAVISVP2,2012-12-05 00:51:00,
2012-12-04 17:56:00,66.8,38.8,30.11,WNW,302,0.0,1.0,36,0.00,,,0.00,WUHU216DAVISVP2,2012-12-05 00:56:00,
2012-12-04 18:00:00,66.4,38.4,30.11,WNW,302,0.0,1.0,36,0.00,,,0.00,WUHU216DAVISVP2,2012-12-05 01:00:00,
2012-12-04 18:06:00,65.8,37.9,30.11,SW,219,1.0,1.0,36,0.00,,,0.00,WUHU216DAVISVP2,2012-12-05 01:06:00,
2012-12-04 18:11:00,65.1,38.0,30.11,SW,218,0.0,1.0,37,0.00,,,0.00,WUHU216DAVISVP2,2012-12-05 01:11:00,
2012-12-04 18:16:00,65.1,38.7,30.11,West,270,1.0,1.0,38,0.00,,,0.00,WUHU216DAVISVP2,2012-12-05 01:16:00,
2012-12-04 18:20:00,65.1,38.0,30.11,West,270,0.0,1.0,37,0.00,,,0.00,WUHU216DAVISVP2,2012-12-05 01:20:00,
2012-12-04 18:25:00,64.5,38.2,30.11,West,270,0.0,1.0,38,0.00,,,0.00,WUHU216DAVISVP2,2012-12-05 01:25:00,
2012-12-04 18:31:00,63.6,38.0,30.11,ESE,114,0.0,1.0,39,0.00,,,0.00,WUHU216DAVISVP2,2012-12-05 01:31:00,
2012-12-04 18:36:00,62.8,38.0,30.12,ESE,122,0.0,1.0,40,0.00,,,0.00,WUHU216DAVISVP2,2012-12-05 01:36:00,
2012-12-04 18:41:00,62.5,38.3,30.12,ESE,121,0.0,1.0,41,0.00,,,0.00,WUHU216DAVISVP2,2012-12-05 01:41:00,
2012-12-04 18:46:00,62.7,37.2,30.12,SE,131,0.0,1.0,39,0.00,,,0.00,WUHU216DAVISVP2,2012-12-05 01:46:00,
2012-12-04 18:51:00,61.8,38.3,30.12,SE,131,0.0,1.0,42,0.00,,,0.00,WUHU216DAVISVP2,2012-12-05 01:51:00,
2012-12-04 18:56:00,61.5,38.1,30.12,East,97,2.0,2.0,42,0.00,,,0.00,WUHU216DAVISVP2,2012-12-05 01:56:00,
2012-12-04 19:01:00,60.9,37.5,30.12,East,99,2.0,3.0,42,0.00,,,0.00,WUHU216DAVISVP2,2012-12-05 02:01:00,
2012-12-04 19:06:00,60.5,37.8,30.12,East,98,1.0,3.0,43,0.00,,,0.00,WUHU216DAVISVP2,2012-12-05 02:06:00,
2012-12-04 19:11:00,60.2,37.5,30.12,ESE,103,1.0,3.0,43,0.00,,,0.00,WUHU216DAVISVP2,2012-12-05 02:11:00,
2012-12-04 19:16:00,60.0,37.9,30.12,ESE,108,1.0,3.0,44,0.00,,,0.00,WUHU216DAVISVP2,2012-12-05 02:16:00,
2012-12-04 19:22:00,60.0,37.9,30.12,ESE,111,0.0,3.0,44,0.00,,,0.00,WUHU216DAVISVP2,2012-12-05 02:22:00,
2012-12-04 19:27:00,60.0,37.9,30.12,East,101,1.0,3.0,44,0.00,,,0.00,WUHU216DAVISVP2,2012-12-05 02:27:00,
2012-12-04 19:32:00,60.0,37.9,30.12,East,98,3.0,4.0,44,0.00,,,0.00,WUHU216DAVISVP2,2012-12-05 02:32:00,
2012-12-04 19:37:00,59.9,37.8,30.12,East,101,2.0,4.0,44,0.00,,,0.00,WUHU216DAVISVP2,2012-12-05 02:37:00,
2012-12-04 19:42:00,59.8,37.7,30.12,ESE,103,2.0,4.0,44,0.00,,,0.00,WUHU216DAVISVP2,2012-12-05 02:42:00,
2012-12-04 19:47:00,59.7,37.7,30.12,East,101,2.0,4.0,44,0.00,,,0.00,WUHU216DAVISVP2,2012-12-05 02:47:00,
2012-12-04 19:52:00,59.7,37.7,30.12,ESE,105,2.0,4.0,44,0.00,,,0.00,WUHU216DAVISVP2,2012-12-05 02:52:00,
2012-12-04 19:57:00,59.6,37.6,30.12,ESE,105,2.0,4.0,44,0.00,,,0.00,WUHU216DAVISVP2,2012-12-05 02:57:00,
2012-12-04 20:03:00,59.5,37.5,30.12,East,89,2.0,4.0,44,0.00,,,0.00,WUHU216DAVISVP2,2012-12-05 03:03:00,
2012-12-04 20:08:00,59.3,37.3,30.12,East,92,2.0,4.0,44,0.00,,,0.00,WUHU216DAVISVP2,2012-12-05 03:08:00,
2012-12-04 20:13:00,59.1,37.2,30.12,East,101,3.0,5.0,44,0.00,,,0.00,WUHU216DAVISVP2,2012-12-05 03:13:00,
2012-12-04 20:18:00,58.9,36.9,30.12,East,94,2.0,5.0,44,0.00,,,0.00,WUHU216DAVISVP2,2012-12-05 03:18:00,
2012-12-04 20:23:00,58.8,36.8,30.12,East,93,3.0,4.0,44,0.00,,,0.00,WUHU216DAVISVP2,2012-12-05 03:23:00,
2012-12-04 20:28:00,58.5,37.1,30.11,East,98,3.0,5.0,45,0.00,,,0.00,WUHU216DAVISVP2,2012-12-05 03:28:00,
2012-12-04 20:33:00,58.5,37.1,30.11,East,100,0.0,5.0,45,0.00,,,0.00,WUHU216DAVISVP2,2012-12-05 03:33:00,
2012-12-04 20:38:00,58.5,37.1,30.11,East,93,0.0,5.0,45,0.00,,,0.00,WUHU216DAVISVP2,2012-12-05 03:38:00,
2012-12-04 20:43:00,58.6,37.2,30.11,East,97,3.0,4.0,45,0.00,,,0.00,WUHU216DAVISVP2,2012-12-05 03:43:00,
2012-12-04 20:48:00,58.5,36.6,30.11,East,91,3.0,4.0,44,0.00,,,0.00,WUHU216DAVISVP2,2012-12-05 03:48:00,
2012-12-04 20:53:00,58.2,36.3,30.11,East,87,2.0,4.0,44,0.00,,,0.00,WUHU216DAVISVP2,2012-12-05 03:53:00,
2012-12-04 20:58:00,57.8,35.9,30.11,ENE,73,2.0,4.0,44,0.00,,,0.00,WUHU216DAVISVP2,2012-12-05 03:58:00,
2012-12-04 21:03:00,57.4,36.1,30.11,East,81,2.0,4.0,45,0.00,,,0.00,WUHU216DAVISVP2,2012-12-05 04:03:00,
2012-12-04 21:08:00,57.0,35.8,30.11,ESE,122,4.0,5.0,45,0.00,,,0.00,WUHU216DAVISVP2,2012-12-05 04:08:00,
2012-12-04 21:13:00,56.8,35.7,30.11,ESE,107,1.0,5.0,45,0.00,,,0.00,WUHU216DAVISVP2,2012-12-05 04:13:00,
2012-12-04 21:18:00,56.6,35.4,30.11,East,88,2.0,5.0,45,0.00,,,0.00,WUHU216DAVISVP2,2012-12-05 04:18:00,
2012-12-04 21:23:00,56.7,35.5,30.11,East,99,2.0,5.0,45,0.00,,,0.00,WUHU216DAVISVP2,2012-12-05 04:23:00,
2012-12-04 21:28:00,56.8,35.6,30.11,East,99,1.0,4.0,45,0.00,,,0.00,WUHU216DAVISVP2,2012-12-05 04:28:00,
2012-12-04 21:33:00,56.8,35.6,30.11,East,86,0.0,4.0,45,0.00,,,0.00,WUHU216DAVISVP2,2012-12-05 04:33:00,
2012-12-04 21:38:00,57.3,35.5,30.11,East,101,0.0,3.0,44,0.00,,,0.00,WUHU216DAVISVP2,2012-12-05 04:38:00,
2012-12-04 21:43:00,58.4,35.3,30.11,SE,134,0.0,3.0,42,0.00,,,0.00,WUHU216DAVISVP2,2012-12-05 04:43:00,
2012-12-04 21:48:00,59.4,34.9,30.12,ENE,67,0.0,3.0,40,0.00,,,0.00,WUHU216DAVISVP2,2012-12-05 04:48:00,
2012-12-04 21:53:00,60.3,35.1,30.11,SE,131,1.0,3.0,39,0.00,,,0.00,WUHU216DAVISVP2,2012-12-05 04:53:00,
2012-12-04 21:58:00,60.9,34.9,30.12,NNE,32,0.0,3.0,38,0.00,,,0.00,WUHU216DAVISVP2,2012-12-05 04:58:00,
2012-12-04 22:00:00,60.5,34.7,30.12,NNE,32,0.0,3.0,38,0.00,,,0.00,WUHU216DAVISVP2,2012-12-05 05:00:00,
2012-12-04 22:02:00,60.4,34.7,30.11,NNE,32,0.0,2.0,38,0.00,,,0.00,WUHU216DAVISVP2,2012-12-05 05:02:00,
2012-12-04 22:07:00,59.7,34.5,30.12,ENE,68,0.0,2.0,39,0.00,,,0.00,WUHU216DAVISVP2,2012-12-05 05:07:00,
2012-12-04 22:12:00,58.9,34.5,30.12,ENE,68,0.0,2.0,40,0.00,,,0.00,WUHU216DAVISVP2,2012-12-05 05:12:00,
2012-12-04 22:17:00,58.1,34.4,30.12,East,82,0.0,2.0,41,0.00,,,0.00,WUHU216DAVISVP2,2012-12-05 05:17:00,
2012-12-04 22:22:00,57.5,33.8,30.12,East,79,1.0,2.0,41,0.00,,,0.00,WUHU216DAVISVP2,2012-12-05 05:22:00,
2012-12-04 22:27:00,57.6,35.1,30.12,WSW,248,1.0,3.0,43,0.00,,,0.00,WUHU216DAVISVP2,2012-12-05 05:27:00,
2012-12-04 22:32:00,58.5,34.1,30.12,WSW,245,0.0,3.0,40,0.00,,,0.00,WUHU216DAVISVP2,2012-12-05 05:32:00,
2012-12-04 22:37:00,58.5,34.1,30.12,WSW,246,0.0,3.0,40,0.00,,,0.00,WUHU216DAVISVP2,2012-12-05 05:37:00,
2012-12-04 22:43:00,58.4,34.0,30.12,East,85,0.0,4.0,40,0.00,,,0.00,WUHU216DAVISVP2,2012-12-05 05:43:00,
2012-12-04 22:49:00,58.1,34.5,30.12,ESE,113,0.0,4.0,41,0.00,,,0.00,WUHU216DAVISVP2,2012-12-05 05:49:00,
2012-12-04 22:54:00,58.0,34.4,30.12,SE,145,0.0,3.0,41,0.00,,,0.00,WUHU216DAVISVP2,2012-12-05 05:54:00,
2012-12-04 22:59:00,57.1,33.6,30.12,ENE,72,1.0,3.0,41,0.00,,,0.00,WUHU216DAVISVP2,2012-12-05 05:59:00,
2012-12-04 23:04:00,55.9,33.6,30.12,ENE,73,1.0,3.0,43,0.00,,,0.00,WUHU216DAVISVP2,2012-12-05 06:04:00,
2012-12-04 23:09:00,55.5,33.2,30.12,SE,129,1.0,2.0,43,0.00,,,0.00,WUHU216DAVISVP2,2012-12-05 06:09:00,
2012-12-04 23:14:00,55.5,33.8,30.12,East,94,1.0,2.0,44,0.00,,,0.00,WUHU216DAVISVP2,2012-12-05 06:14:00,
2012-12-04 23:19:00,55.9,33.6,30.12,ENE,75,0.0,2.0,43,0.00,,,0.00,WUHU216DAVISVP2,2012-12-05 06:19:00,
2012-12-04 23:24:00,55.7,33.4,30.11,SE,125,2.0,2.0,43,0.00,,,0.00,WUHU216DAVISVP2,2012-12-05 06:24:00,
2012-12-04 23:29:00,55.4,33.1,30.12,East,90,1.0,2.0,43,0.00,,,0.00,WUHU216DAVISVP2,2012-12-05 06:29:00,
2012-12-04 23:34:00,55.5,33.2,30.12,ENE,73,0.0,2.0,43,0.00,,,0.00,WUHU216DAVISVP2,2012-12-05 06:34:00,
2012-12-04 23:39:00,55.3,33.6,30.12,ESE,103,2.0,3.0,44,0.00,,,0.00,WUHU216DAVISVP2,2012-12-05 06:39:00,
2012-12-04 23:44:00,55.0,33.4,30.11,ESE,102,1.0,3.0,44,0.00,,,0.00,WUHU216DAVISVP2,2012-12-05 06:44:00,
2012-12-04 23:49:00,54.7,33.7,30.12,ESE,103,3.0,3.0,45,0.00,,,0.00,WUHU216DAVISVP2,2012-12-05 06:49:00,
2012-12-04 23:54:00,54.7,33.7,30.11,East,87,2.0,4.0,45,0.00,,,0.00,WUHU216DAVISVP2,2012-12-05 06:54:00,
2012-12-04 23:59:00,55.0,33.4,30.11,ENE,69,2.0,4.0,44,0.00,,,0.00,WUHU216DAVISVP2,2012-12-05 06:59:00,